Hourly Weather Ivanava

Today, 13 August, Thursday

Time Temperature Precipitation Wind Pressure Humidity
00:00 +13°C° 0 mm 1 mps 752 mmHg 84%
01:00 +12°C° 0 mm 1 mps 752 mmHg 86%
02:00 +12°C° 0 mm 1 mps 752 mmHg 88%
03:00 +11°C° 0 mm 1 mps 752 mmHg 89%
04:00 +11°C° 0 mm 1 mps 752 mmHg 89%
05:00 +11°C° 0 mm 1 mps 752 mmHg 90%
06:00 +13°C° 0 mm 1 mps 751 mmHg 85%
07:00 +14°C° 0 mm 1 mps 751 mmHg 80%
08:00 +16°C° 0 mm 1 mps 751 mmHg 75%
09:00 +18°C° 0 mm 1 mps 751 mmHg 69%
10:00 +19°C° 0 mm 1 mps 751 mmHg 64%
11:00 +20°C° 0 mm 2 mps 751 mmHg 58%
12:00 +20°C° 0 mm 2 mps 751 mmHg 57%
13:00 +21°C° 0 mm 2 mps 751 mmHg 55%
14:00 +21°C° 0 mm 2 mps 750 mmHg 53%
15:00 +22°C° 0 mm 1 mps 750 mmHg 55%
16:00 +22°C° 0 mm 1 mps 750 mmHg 57%
17:00 +22°C° 0 mm 1 mps 750 mmHg 59%
18:00 +20°C° 0 mm 1 mps 750 mmHg 64%
19:00 +18°C° 0 mm 1 mps 750 mmHg 70%
20:00 +16°C° 0 mm 1 mps 750 mmHg 75%
21:00 +15°C° 0 mm 2 mps 750 mmHg 77%
22:00 +14°C° 0 mm 2 mps 750 mmHg 79%
23:00 +13°C° 0 mm 2 mps 750 mmHg 81%

Tomorrow, 14 August, Friday

Time Temperature Precipitation Wind Pressure Humidity
00:00 +13°C° 0 mm 2 mps 750 mmHg 83%
01:00 +12°C° 0 mm 1 mps 751 mmHg 84%
02:00 +12°C° 0 mm 1 mps 751 mmHg 85%
03:00 +12°C° 0 mm 1 mps 751 mmHg 85%
04:00 +11°C° 0 mm 1 mps 750 mmHg 86%
05:00 +11°C° 0 mm 1 mps 750 mmHg 86%
06:00 +13°C° 0 mm 1 mps 750 mmHg 81%
07:00 +15°C° 0 mm 1 mps 751 mmHg 75%
08:00 +16°C° 0 mm 1 mps 751 mmHg 69%
09:00 +19°C° 0 mm 1 mps 751 mmHg 65%
10:00 +20°C° 0 mm 1 mps 751 mmHg 61%
11:00 +21°C° 0 mm 1 mps 751 mmHg 56%
12:00 +22°C° 0 mm 1 mps 751 mmHg 54%
13:00 +23°C° 0 mm 1 mps 751 mmHg 52%
14:00 +23°C° 0 mm 1 mps 750 mmHg 50%
15:00 +23°C° 0 mm 1 mps 750 mmHg 51%
16:00 +23°C° 0 mm 1 mps 750 mmHg 51%
17:00 +23°C° 0 mm 1 mps 750 mmHg 52%
18:00 +22°C° 0 mm 1 mps 750 mmHg 58%
19:00 +20°C° 0 mm 1 mps 750 mmHg 64%
20:00 +18°C° 0 mm 1 mps 750 mmHg 70%
21:00 +16°C° 0 mm 1 mps 750 mmHg 72%
22:00 +16°C° 0 mm 1 mps 751 mmHg 74%
23:00 +15°C° 0 mm 1 mps 751 mmHg 76%

Day after tomorrow, 15 August, Saturday

Time Temperature Precipitation Wind Pressure Humidity
00:00 +15°C° 0 mm 1 mps 751 mmHg 79%
01:00 +14°C° 0 mm 1 mps 751 mmHg 81%
02:00 +14°C° 0 mm 1 mps 751 mmHg 83%
03:00 +13°C° 0 mm 1 mps 751 mmHg 85%
04:00 +13°C° 0 mm 1 mps 751 mmHg 86%
05:00 +13°C° 0 mm 1 mps 751 mmHg 88%
06:00 +14°C° 0 mm 1 mps 751 mmHg 82%
07:00 +16°C° 0 mm 1 mps 751 mmHg 77%
08:00 +19°C° 0 mm 1 mps 751 mmHg 72%
09:00 +20°C° 0 mm 1 mps 751 mmHg 68%
10:00 +20°C° 0 mm 2 mps 751 mmHg 64%
11:00 +23°C° 0 mm 2 mps 752 mmHg 59%
12:00 +23°C° 0.1 mm 2 mps 751 mmHg 57%
13:00 +24°C° 0.1 mm 2 mps 751 mmHg 55%
14:00 +24°C° 0.1 mm 3 mps 751 mmHg 53%
15:00 +24°C° 0 mm 3 mps 751 mmHg 55%
16:00 +24°C° 0 mm 3 mps 751 mmHg 56%
17:00 +24°C° 0 mm 3 mps 751 mmHg 58%
18:00 +21°C° 0 mm 2 mps 751 mmHg 63%
19:00 +19°C° 0 mm 2 mps 751 mmHg 69%
20:00 +18°C° 0 mm 1 mps 751 mmHg 75%
21:00 +16°C° 0 mm 1 mps 751 mmHg 76%
22:00 +16°C° 0 mm 1 mps 751 mmHg 77%
23:00 +15°C° 0 mm 1 mps 751 mmHg 79%

16 August, Sunday

Time Temperature Precipitation Wind Pressure Humidity
00:00 +15°C° 0 mm 1 mps 751 mmHg 80%
01:00 +14°C° 0 mm 1 mps 751 mmHg 82%
02:00 +13°C° 0 mm 0 mps 751 mmHg 83%
03:00 +12°C° 0 mm 0 mps 751 mmHg 84%
04:00 +12°C° 0 mm 0 mps 751 mmHg 84%
05:00 +12°C° 0 mm 0 mps 751 mmHg 85%
06:00 +14°C° 0 mm 0 mps 751 mmHg 79%
07:00 +16°C° 0 mm 0 mps 752 mmHg 74%
08:00 +17°C° 0 mm 0 mps 752 mmHg 68%
09:00 +19°C° 0 mm 0 mps 752 mmHg 64%
10:00 +21°C° 0 mm 0 mps 752 mmHg 59%
11:00 +22°C° 0 mm 0 mps 752 mmHg 55%
12:00 +23°C° 0 mm 0 mps 752 mmHg 53%
13:00 +24°C° 0 mm 0 mps 752 mmHg 51%
14:00 +24°C° 0 mm 0 mps 752 mmHg 49%
15:00 +24°C° 0 mm 0 mps 752 mmHg 50%
16:00 +24°C° 0 mm 0 mps 751 mmHg 50%
17:00 +24°C° 0 mm 0 mps 751 mmHg 50%
18:00 +22°C° 0 mm 0 mps 751 mmHg 56%
19:00 +20°C° 0 mm 0 mps 751 mmHg 62%
20:00 +18°C° 0 mm 0 mps 751 mmHg 68%
21:00 +17°C° 0 mm 0 mps 751 mmHg 70%
22:00 +19°C° 0 mm 1 mps 751 mmHg 71%
23:00 +18°C° 0 mm 1 mps 751 mmHg 73%

17 August, Monday

Time Temperature Precipitation Wind Pressure Humidity
00:00 +18°C° 0 mm 1 mps 751 mmHg 74%
01:00 +16°C° 0 mm 1 mps 751 mmHg 75%
02:00 +16°C° 0 mm 1 mps 751 mmHg 75%
03:00 +16°C° 0 mm 1 mps 751 mmHg 76%
04:00 +15°C° 0 mm 1 mps 751 mmHg 76%
05:00 +15°C° 0 mm 1 mps 751 mmHg 77%
06:00 +16°C° 0 mm 0 mps 751 mmHg 73%
07:00 +17°C° 0 mm 0 mps 750 mmHg 69%
08:00 +19°C° 0 mm 0 mps 750 mmHg 65%
09:00 +22°C° 0 mm 1 mps 750 mmHg 60%
10:00 +24°C° 0 mm 1 mps 750 mmHg 56%
11:00 +25°C° 0 mm 2 mps 750 mmHg 52%
12:00 +26°C° 0 mm 2 mps 750 mmHg 50%
13:00 +26°C° 0 mm 2 mps 749 mmHg 47%
14:00 +27°C° 0 mm 2 mps 749 mmHg 44%
15:00 +27°C° 0 mm 2 mps 749 mmHg 45%
16:00 +27°C° 0 mm 1 mps 748 mmHg 45%
17:00 +27°C° 0 mm 1 mps 748 mmHg 46%
18:00 +25°C° 0 mm 1 mps 748 mmHg 51%
19:00 +22°C° 0 mm 1 mps 747 mmHg 57%
20:00 +20°C° 0 mm 1 mps 747 mmHg 62%
21:00 +19°C° 0 mm 1 mps 747 mmHg 65%
22:00 +19°C° 0 mm 1 mps 747 mmHg 67%
23:00 +18°C° 0 mm 1 mps 747 mmHg 69%

18 August, Tuesday

Time Temperature Precipitation Wind Pressure Humidity
00:00 +18°C° 0 mm 1 mps 747 mmHg 69%
01:00 +16°C° 0 mm 1 mps 747 mmHg 70%
02:00 +16°C° 0 mm 1 mps 746 mmHg 71%
03:00 +15°C° 0 mm 1 mps 746 mmHg 72%
04:00 +15°C° 0 mm 2 mps 746 mmHg 73%
05:00 +15°C° 0 mm 2 mps 746 mmHg 73%
06:00 +16°C° 0 mm 2 mps 746 mmHg 71%
07:00 +18°C° 0 mm 2 mps 745 mmHg 68%
08:00 +19°C° 0 mm 2 mps 745 mmHg 65%
09:00 +21°C° 0 mm 2 mps 745 mmHg 60%
10:00 +24°C° 0 mm 2 mps 745 mmHg 55%
11:00 +25°C° 0 mm 2 mps 745 mmHg 49%
12:00 +26°C° 0 mm 2 mps 745 mmHg 47%
13:00 +27°C° 0 mm 2 mps 744 mmHg 45%
14:00 +28°C° 0 mm 2 mps 744 mmHg 43%
15:00 +28°C° 0 mm 2 mps 744 mmHg 44%
16:00 +28°C° 0 mm 1 mps 743 mmHg 46%
17:00 +28°C° 0 mm 1 mps 743 mmHg 47%
18:00 +26°C° 0 mm 1 mps 743 mmHg 53%
19:00 +23°C° 0 mm 1 mps 743 mmHg 59%
20:00 +19°C° 0 mm 0 mps 743 mmHg 65%
21:00 +21°C° 0 mm 1 mps 743 mmHg 67%
22:00 +20°C° 0 mm 1 mps 743 mmHg 68%
23:00 +20°C° 0 mm 1 mps 743 mmHg 70%
Show more